Location: Brushy Fork
(37.9648°N, 89.4831°W)
Time: 01:56:24
(UTC+00:00)

Daily predictions for brighter satellites

Satellite Brightness Start Highest point End
(mag) Time Altitude Azimuth Time Altitude Azimuth Time Altitude Azimuth
Resurs 1-3 4.5 01:35:06 10° SE 01:39:00 32° ENE 01:42:54 10° N
Cosmos 1758 Rocket 3.7 01:36:37 10° S 01:40:54 81° W 01:45:14 10° N
Cosmos 2298 Rocket 4.2 01:35:39 10° N 01:40:57 58° ENE 01:46:10 10° SSE
Cosmos 1125 Rocket 4.0 01:37:16 10° N 01:42:24 46° ENE 01:47:28 10° SE
NOSS 3-2 (A) 4.3 01:35:27 10° NW 01:43:18 85° WSW 01:52:03 10° SSE
deb Kosmos-1763 3.9 01:40:43 10° S 01:44:11 69° ESE 01:47:41 10° NNE
Okean-O 4.5 01:44:57 10° SSW 01:48:53 32° W 01:52:52 10° NNW
Cosmos 1869 3.3 01:48:08 10° N 01:51:58 56° E 01:55:44 10° SSE
COSMOS 2406 3.5 01:48:12 10° S 01:53:35 46° ESE 01:59:00 10° NE
Cosmos 2058 3.8 01:50:37 10° SSE 01:54:14 30° E 01:57:53 10° NNE
Cosmos 1825 2.5 01:51:58 10° SSE 01:55:31 44° E 01:59:07 10° NNE
Meteor 1-27 4.4 01:50:32 10° N 01:56:18 88° W 02:02:07 10° S
NOSS 3-4 (A) 3.4 01:50:45 10° SSW 01:56:32 86° WNW 02:02:38 10° NNE
NOSS 3-4 (C) 3.4 01:50:52 10° SSW 01:56:38 88° WNW 02:02:44 10° NNE
USA 306 3.0 01:52:39 10° NW 01:56:54 66° NE 02:00:51 12° SE
SAR-Lupe-1 4.2 01:54:18 10° N 01:57:53 80° WNW 02:01:26 10° SSW
SAR-Lupe-4 3.5 01:54:42 10° NNE 01:58:19 89° ESE 02:01:53 10° SSW
OBJECT-B 1.5 01:57:06 10° S 02:00:13 54° W 02:03:22 10° NNW
SL-19 R/B 4.2 01:58:23 10° S 02:01:31 69° WSW 02:05:07 10° NNW
Cosmos 405 Rocket 3.4 01:58:26 10° SSW 02:02:14 59° W 02:06:09 10° N
SJ-6B 3.0 01:59:10 10° S 02:02:53 68° WSW 02:06:36 10° NNW
Atlas Centaur 2 3.1 02:02:01 10° S 02:03:38 12° SSE 02:04:35 11° SSE
USA 32 4.0 01:59:48 10° N 02:05:01 68° E 02:10:13 10° SSE
ATLAS 2AS CENTAUR R/B 3.1 01:57:32 10° SSW 02:05:14 61° ESE 02:12:55 10° NE
Cosmos 1656 3.8 02:00:46 10° NNW 02:06:23 63° ENE 02:11:34 12° SSE
Centaur D-1AR AC-39 3.8 02:05:09 10° SW 02:06:47 11° SSW 02:08:07 10° S
Cosmos 1980 Rocket 3.9 02:04:28 10° N 02:08:15 18° NE 02:12:00 10° E
Cosmos 1437 Rocket 2.7 02:06:23 10° N 02:10:13 70° E 02:14:05 10° SSE
NOSS 3-2 (C) 4.2 02:02:30 10° NNW 02:10:22 89° ENE 02:18:50 11° SSE
Resurs 01 Rocket 2.2 02:08:50 13° SE 02:12:32 42° ENE 02:16:44 10° N
Cosmos 1408 3.8 02:12:48 10° SSW 02:16:18 44° W 02:19:48 10° N
Cosmos 1437 3.2 02:15:31 10° N 02:18:03 32° ENE 02:19:12 23° SE
NOSS 2 (A) 4.3 02:17:21 10° NNW 02:19:51 52° NE 02:20:51 27° ESE
RESURS DK-1 3.2 02:18:04 10° SSE 02:21:40 29° ESE 02:25:17 10° NE
Cosmos-2242 4.2 02:17:53 10° NNW 02:21:55 42° W 02:25:55 10° SSW
OAO 3 Copernicus 4.5 02:17:47 10° WSW 02:22:39 51° SSE 02:26:48 14° E
Cosmos 2098 Rocket 3.7 02:22:42 18° E 02:22:48 18° E 02:24:56 10° NE
ATLAS 3B R/B 4.2 02:21:28 10° NNW 02:27:08 25° NE 02:32:46 11° E
USA 267 3.7 02:22:46 10° ENE 02:28:43 37° SE 02:34:38 10° SSW
CENTAUR R/B 3.7 02:20:53 10° NW 02:29:12 64° WSW 02:37:50 11° SSE
Cosmos 1633 3.4 02:29:09 24° SE 02:30:27 31° E 02:33:40 10° NNE
SPOT 1/Viking Rocket 4.1 02:28:26 19° SE 02:31:42 41° ENE 02:36:33 10° N
MetOp-B 4.5 02:28:47 18° SE 02:32:28 49° ENE 02:37:36 10° N
Cosmos 44 Rocket 3.4 02:29:26 10° SSW 02:34:35 83° ESE 02:39:51 10° NNE
Meteor 2-2 Rocket 4.2 02:29:40 10° N 02:35:31 76° E 02:40:10 16° SSE
Cosmos 1634 Rocket 4.5 02:29:43 10° NNW 02:35:55 62° W 02:42:01 10° S
ARIANE 5 R/B 4.1 02:38:33 19° E 02:40:07 23° ENE 02:43:39 10° NNE
ERS-2 3.3 02:37:13 10° N 02:40:42 43° WNW 02:44:09 10° SW
Ariane Rocket 3.5 02:37:44 10° S 02:42:44 59° W 02:47:45 10° NNW
SPOT 5 4.2 02:44:08 18° E 02:45:16 20° ENE 02:48:25 10° NNE
ATLAS 2A CENTAUR R/B 4.4 02:30:39 10° WSW 02:46:29 35° S 02:49:13 24° SE
Cosmos 2180 Rocket 4.4 02:40:28 10° N 02:46:39 76° E 02:51:12 19° SSE
SEDSat Delta rocket 3.7 02:45:56 10° SW 02:49:29 30° S 02:49:48 29° SSE
CZ-2C R/B 3.6 02:46:00 10° NNE 02:50:32 67° ESE 02:53:38 19° S
OAO 2 Rocket 3.4 02:46:25 10° W 02:51:20 56° S 02:53:27 31° SE
Cosmos 1242 Rocket 3.3 02:48:04 10° NNW 02:51:34 49° W 02:53:50 19° SSW
CARTOSAT-1 4.3 02:51:42 29° ESE 02:52:59 36° ENE 02:56:57 10° N
Cosmos 2221 2.4 02:49:37 10° N 02:53:56 88° E 02:56:12 28° S
USA 307 3.8 02:51:56 10° WNW 02:55:56 40° SW 02:57:40 26° S
Cosmos 371 Rocket 4.3 02:59:38 10° N 03:03:56 32° ENE 03:05:07 28° E
ERBS 3.7 03:02:30 10° NNW 03:05:16 26° NE 03:05:39 25° NE
Terra 3.1 03:04:43 23° E 03:05:39 25° ENE 03:09:31 10° NNE
Cosmos 1697 Rocket 2.7 03:00:56 10° NNW 03:06:37 81° WSW 03:09:29 31° SSE
IGS 5A 4.5 03:04:14 18° SSW 03:06:58 42° W 03:10:55 10° NNW
GRACE-FO 1 4.4 03:03:37 10° N 03:07:13 70° E 03:07:42 59° SE
GRACE-FO 2 4.4 03:04:03 10° N 03:07:40 71° E 03:08:10 60° SE
Hubble Space Telescope 2.6 03:05:28 10° SW 03:07:15 18° SSW 03:07:15 18° SSW
Cosmos 1606 2.6 03:06:31 10° N 03:10:18 82° W 03:11:14 49° S
Cosmos 2082 Rocket 2.4 03:04:50 10° SSW 03:10:25 74° WNW 03:16:05 10° NNE
USA 305 4.4 03:09:04 10° WNW 03:12:30 25° SW 03:13:41 21° SSW
USA 308 4.3 03:09:04 10° WNW 03:12:41 28° SW 03:13:51 24° SSW
SPOT 3 Rocket 4.0 03:09:29 22° S 03:12:46 59° W 03:17:57 10° NNW
Cosmos 1833 Rocket 4.4 03:09:17 10° WSW 03:14:20 33° WNW 03:19:25 10° N
Cosmos 2278 4.1 03:09:05 10° N 03:14:33 48° ENE 03:16:22 35° ESE
Meteor 2-15 4.5 03:09:27 10° N 03:15:27 60° E 03:17:44 37° SE
BREEZE-M R/B 3.4 03:11:12 10° SSW 03:17:24 40° SSE 03:17:24 40° SSE
Cosmos 1782 4.4 03:20:34 10° NNE 03:23:14 23° ENE 03:23:14 23° ENE
Cosmos 2151 2.8 03:23:49 58° S 03:24:36 84° E 03:28:51 10° N
Meteor 2-15 Rocket 4.5 03:25:15 10° N 03:31:17 63° E 03:32:59 45° SE
Centaur D AC-29 4.2 03:25:04 10° W 03:31:47 14° SW 03:35:11 10° SSW
Cosmos 1092 Rocket 3.9 03:29:20 35° S 03:32:09 80° E 03:38:27 10° N
GP-B 2.9 03:30:09 10° N 03:34:36 73° E 03:34:52 70° SE
Meteor 2-3 Rocket 3.6 03:36:27 44° S 03:38:21 84° E 03:44:04 10° N
Cosmos 332 Rocket 4.4 03:34:42 10° N 03:39:20 42° ENE 03:39:38 41° ENE
Cosmos 1680 Rocket 4.3 03:40:32 35° E 03:40:32 35° E 03:44:33 10° NE
Cosmos 2369 4.0 03:36:02 10° NNW 03:41:34 58° WSW 03:43:19 41° SSW
ERS-1 Rocket 2.8 03:40:52 62° SSE 03:41:45 85° ENE 03:46:48 10° NNW
Spot 2 Rocket 3.7 03:41:46 44° SSW 03:43:12 63° WSW 03:48:18 10° NNW
Cosmos 1151 Rocket 4.1 03:41:23 10° N 03:44:42 33° ENE 03:44:42 33° ENE
Resurs 01 Rocket 4.1 03:46:30 10° SW 03:49:12 16° W 03:51:54 10° NW
Okean 3 Rocket 4.3 03:50:13 42° NE 03:50:13 42° NE 03:53:39 10° NNE
OAO 1 Rocket 4.4 03:45:04 10° W 03:50:12 65° SSW 03:50:12 65° SSW
Cosmos 2026 Rocket 3.9 03:49:08 43° S 03:51:24 90° ESE 03:57:46 10° N
BREEZE-M DEB (TANK) 3.5 03:48:06 10° NW 03:51:52 61° NE 03:55:45 31° ESE
BREEZE M DEB (TANK) 3.6 03:48:50 10° WSW 03:52:11 82° NNW 04:10:55 10° ENE
Cosmos 1980 Rocket 2.3 03:47:09 10° NNW 03:52:44 65° WSW 03:53:52 52° SSW
Cosmos 158 Rocket 4.4 03:58:13 35° SW 04:00:09 59° WNW 04:05:19 10° N
Cosmos 2322 Rocket 3.3 03:55:24 10° N 04:00:18 30° ENE 04:00:59 29° ENE
H-2A R/B 4.1 03:56:45 10° NNE 03:59:53 48° NNE 03:59:53 48° NNE
Cosmos 1271 Rocket 3.4 04:00:03 10° N 04:03:10 53° NNW 04:03:10 53° NNW
ISS -1.2 04:08:35 10° NNW 04:10:34 19° NNE 04:10:34 19° NNE
USA 267 3.7 04:05:26 10° NE 04:11:51 59° NW 04:18:15 10° WSW
ARIANE 5 R/B 4.0 04:16:06 30° WSW 04:16:23 30° W 04:20:21 10° NW
Meteor 2-21 4.3 04:16:06 72° SE 04:16:39 78° E 04:22:51 10° N
Cosmos 2292 Rocket 4.1 04:16:18 75° SSW 04:16:49 86° W 04:23:39 10° N
ATLAS 3B R/B 2.8 04:11:22 10° NW 04:18:34 80° WSW 04:20:00 61° S
SPOT 5 4.0 04:23:22 31° W 04:23:22 31° W 04:27:01 10° NW
SL-16 R/B 2.3 04:19:57 10° NNW 04:25:32 63° ENE 04:25:32 63° ENE
Cosmos 304 Rocket 4.2 04:22:45 10° NNW 04:26:50 59° NW 04:26:50 59° NW
Cosmos 1655 Rocket 4.0 04:32:56 66° E 04:32:56 66° E 04:39:12 10° NNE
Cosmos 1553 Rocket 3.8 04:27:07 10° N 04:33:12 88° W 04:33:26 84° SSW
Cosmos 2266 Rocket 4.1 04:37:31 60° ENE 04:37:31 60° ENE 04:43:10 10° NNE
Meteor 1-10 Rocket 4.5 04:34:09 10° N 04:39:04 57° NE 04:39:04 57° NE
COSMOS 2455 4.4 04:44:29 22° ENE 04:44:29 22° ENE 04:47:06 10° NE
USA 234 3.8 04:41:00 39° E 04:43:01 51° NE 04:49:19 10° NW
Terra 3.2 04:43:36 30° W 04:43:36 30° W 04:47:27 10° NW
Meteor 2-16 Rocket 4.3 04:50:10 85° N 04:50:10 85° N 04:56:04 10° N
ALOS 2 4.4 04:56:16 26° NNE 04:56:16 26° NNE 04:58:42 10° N
S3M 4.0 04:54:14 10° N 05:00:35 81° W 05:00:35 81° W
Cosmos 2056 Rocket 4.0 04:56:18 10° NNW 05:00:39 57° N 05:00:39 57° N
Cosmos 2333 Rocket 3.5 05:04:41 10° N 05:09:37 30° ENE 05:09:37 30° ENE
Cosmos 2360 Rocket 2.6 05:10:04 10° NNW 05:14:45 59° N 05:14:45 59° N
Cosmos 2297 Rocket 4.5 05:37:04 13° ENE 05:37:04 13° ENE 05:38:08 10° ENE
Cosmos 2322 Rocket 3.5 05:39:14 10° NW 05:42:47 30° WNW 05:42:47 30° WNW
Cosmos 2285 Rocket 4.1 05:52:37 10° NNW 05:58:13 69° NNE 05:58:13 69° NNE
COSMOS 2428 3.3 06:01:37 10° NNW 06:06:19 52° NNE 06:06:19 52° NNE
SL-16 R/B 4.4 06:05:44 10° WNW 06:07:23 14° WNW 06:07:23 14° WNW
Cosmos 2219 Rocket 2.8 06:07:03 10° NNW 06:11:15 52° NNW 06:11:15 52° NNW
Thor Agena Rocket 4.5 06:11:50 10° N 06:15:19 44° N 06:15:19 44° N
USA 234 4.2 06:28:20 33° W 06:28:20 33° W 06:32:14 10° WNW
COSMOS 2455 3.7 06:27:36 41° WNW 06:27:42 41° NW 06:33:22 10° NNE
Cosmos 2219 4.3 06:34:37 36° ENE 06:34:37 36° ENE 06:38:40 10° NE
CZ-3B R/B 4.4 06:32:11 10° NW 06:33:35 17° NW 06:33:35 17° NW
Cosmos 1709 Rocket 4.3 06:37:29 57° ENE 06:37:29 57° ENE 06:43:15 10° NNE
NOSS 0 Rocket 4.2 06:32:32 10° NNW 06:38:37 62° ENE 06:38:37 62° ENE
Cosmos 1745 Rocket 4.2 06:45:31 64° NW 06:45:31 64° NW 06:51:06 10° N
ATLAS 5 CENTAUR R/B 2.8 06:47:50 10° NNW 06:53:34 58° NE 06:54:21 54° E
Cosmos 2333 Rocket 3.7 06:48:49 10° NW 06:51:36 25° WNW 06:51:36 25° WNW
Meteor 1-11 Rocket 4.2 06:56:39 54° ENE 06:56:39 54° ENE 07:01:17 10° NNE
Lacrosse 5 3.1 06:57:57 35° ENE 06:57:57 35° ENE 07:00:58 10° NE
SL-16 R/B 3.7 07:00:09 30° ESE 07:02:04 37° ENE 07:07:39 10° N
Cosmos 1980 4.0 06:57:14 10° NNW 07:02:27 63° NE 07:02:27 63° NE
Resurs 1-4 Rocket 3.0 06:59:06 10° NNE 07:03:26 40° ENE 07:03:26 40° ENE
Nadezhda 1 Rocket 4.5 07:04:25 10° NNW 07:09:56 49° WNW 07:09:56 49° WNW
Cosmos 2297 Rocket 2.5 07:18:52 61° NW 07:18:52 61° NW 07:23:59 10° NNE
Cosmos 2074 Rocket 4.4 07:23:14 48° ESE 07:23:59 50° E 07:29:58 10° NNE
NPP 4.1 07:19:06 10° NNE 07:24:07 51° E 07:24:07 51° E
Cosmos 2237 Rocket 2.3 07:21:26 10° NNW 07:26:22 68° NW 07:26:22 68° NW
ASTEX 1 3.9 07:29:44 53° NNW 07:29:44 53° NNW 07:33:29 10° N
Cosmos 2227 Rocket 2.3 07:29:32 68° NW 07:29:32 68° NW 07:34:49 10° NNE
Meteor 1-13 Rocket 4.3 07:24:52 10° NNW 07:30:08 70° NW 07:30:08 70° NW
ADEOS Rocket 3.7 07:29:11 34° ESE 07:30:53 43° ENE 07:36:03 10° N
USA 229 DEB 4.1 07:23:40 10° NW 07:30:34 55° WSW 07:30:34 55° WSW
USA 229 4.0 07:23:46 10° NW 07:30:42 56° WSW 07:30:42 56° WSW
Cosmos 1743 4.4 07:39:45 31° N 07:39:45 31° N 07:41:52 10° N
CZ-2D R/B 2.1 07:37:05 10° NNE 07:42:21 84° NNW 07:42:21 84° NNW
Cosmos 2181 Rocket 3.8 07:36:35 10° N 07:42:56 80° W 07:43:19 76° SW
ADEOS II 2.7 07:39:19 10° NNE 07:44:22 45° E 07:44:45 45° ESE
Cosmos 614 Rocket 4.0 07:50:06 70° E 07:50:06 70° E 07:55:11 10° NNE
SL-16 R/B 2.9 07:45:29 10° NNW 07:51:00 51° ENE 07:53:47 28° SE
NOSS 3-1 (A) 4.5 07:43:54 10° NW 07:51:22 45° WSW 07:51:22 45° WSW
Meteor 1-23 Rocket 4.1 07:47:48 10° N 07:53:32 88° WSW 07:53:54 79° S
Cosmos 2263 Rocket 3.4 07:54:29 29° SE 07:55:42 32° ESE 08:00:40 10° NE
Cosmos 1975 4.0 07:57:17 39° ENE 07:57:17 39° ENE 08:00:46 10° NNE
ATLAS CENTAUR R/B 3.8 07:57:40 12° E 07:57:40 12° E 07:58:43 10° E
SL-19 R/B 4.5 07:54:40 10° NNE 08:00:49 78° ESE 08:02:07 58° S
Cosmos 2221 Rocket 3.9 07:56:56 10° N 08:01:25 66° ENE 08:01:25 66° ENE
Cosmos 407 Rocket 4.3 08:01:06 38° SE 08:02:00 41° ESE 08:06:56 10° NNE
Cosmos 1461 3.7 08:05:09 47° ESE 08:05:09 47° ESE 08:09:15 10° NE
Cosmos 1992 Rocket 3.9 08:00:52 10° NNW 08:05:56 75° W 08:05:56 75° W
Cosmos 2344 3.8 08:04:49 39° SSE 08:07:19 55° ESE 08:14:34 10° NE
Meteor 1-29 4.4 08:08:36 10° NNE 08:10:46 35° NE 08:10:46 35° NE
UNK 4.2 08:14:59 50° WNW 08:14:59 50° WNW 08:18:51 10° NNW
Helios 1B rocket 3.0 08:11:38 10° N 08:14:58 48° NW 08:14:58 48° NW
Cosmos 1674 Rocket 4.2 08:13:20 10° N 08:17:41 53° E 08:18:39 44° SE
Cosmos 1238 Rocket 3.9 08:18:43 34° NE 08:18:43 34° NE 08:20:54 10° NNE
Meteor 2-12 Rocket 4.4 08:16:51 55° SW 08:17:51 63° W 08:23:58 10° N
Cosmos 1842 3.5 08:19:01 10° N 08:22:21 65° N 08:22:21 65° N
Nadezhda 3 Rocket 4.1 08:16:59 10° N 08:23:23 78° E 08:26:34 32° SSE
Cosmos 2327 Rocket 4.4 08:25:50 48° SSW 08:27:41 81° W 08:33:52 10° N
BREEZE-M DEB (TANK) 4.0 08:30:27 38° NE 08:30:27 38° NE 08:31:55 10° NE
IDEFIX/ARIANE 42P 2.6 08:29:33 10° NNE 08:34:45 75° ESE 08:36:26 44° S
CBERS-1 4.0 08:29:44 10° NNE 08:34:53 78° ESE 08:36:25 46° S
Cosmos 2251 Rocket 4.2 08:36:33 35° W 08:37:20 37° WNW 08:42:14 10° N
Cosmos 2082 4.5 08:36:22 34° W 08:37:40 38° WNW 08:43:01 10° N
ATLAS 5 CENTAUR R/B 3.9 08:33:10 10° WNW 08:35:47 21° W 08:35:47 21° W
Cosmos 1378 Rocket 3.5 08:34:29 10° N 08:38:51 81° E 08:39:54 51° SSE
Lacrosse 5 3.5 08:37:07 19° WNW 08:39:15 25° NW 08:43:26 10° NNE
Cosmos 1908 Rocket 3.5 08:42:21 53° S 08:43:18 79° E 08:47:38 10° N
Resurs 1-4 Rocket 3.5 08:39:34 10° NNW 08:43:38 23° WNW 08:44:30 22° W
USA 215 3.9 08:38:34 10° ENE 08:44:47 45° SE 08:47:58 27° S
Cosmos 1356 Rocket 3.1 08:44:46 71° SW 08:45:07 80° W 08:49:09 10° N
SL-16 R/B 3.2 08:45:14 32° WSW 08:45:38 32° W 08:51:07 10° NW
Cosmos 1733 Rocket 4.2 08:50:26 29° WNW 08:50:26 29° WNW 08:54:18 10° NNW
Cosmos 2154 Rocket 4.3 08:50:40 36° WSW 08:52:36 47° WNW 08:58:34 10° N
BREEZE-M DEB (TANK) 4.4 08:45:45 23° WSW 08:53:02 65° NW 08:56:53 10° NE
SWARM C 4.4 08:53:20 76° NW 08:53:20 76° NW 08:56:32 10° N
SWARM A 4.1 08:53:25 73° NW 08:53:25 73° NW 08:56:35 10° N
Cosmos 1190 Rocket 3.9 08:51:32 40° SSW 08:53:31 89° W 08:58:51 10° NNE
DELTA 2 DEB (DPAF) 4.0 08:53:13 44° S 08:54:31 70° WSW 08:58:57 10° NNW
SL-8 R/B 4.0 08:53:11 37° W 08:54:52 61° NNW 08:59:38 10° NE
Cosmos 1140 Rocket 3.5 08:54:56 41° SW 08:56:40 66° WNW 09:01:54 10° NNE
Meteor 1-21 4.3 08:56:50 10° NNW 09:02:33 63° W 09:05:54 25° SSW
ASTRO E2 3.8 09:05:37 28° SSE 09:05:37 28° SSE 09:08:49 10° ESE
CZ-4C R/B 3.3 09:04:26 24° SSE 09:06:50 89° ENE 09:11:04 10° NNW
MSX 3.8 09:01:09 10° N 09:06:53 78° WNW 09:10:11 27° SSW
CZ-4B R/B 3.9 09:02:32 10° NNE 09:07:18 56° E 09:10:42 18° S
Cosmos 1954 Rocket 4.1 09:04:41 26° S 09:07:41 76° ESE 09:13:00 10° NNE
Okean 2 3.7 09:04:20 10° NNW 09:08:20 46° W 09:09:08 40° SW
Cosmos 44 4.2 09:03:54 10° NNW 09:09:00 52° NE 09:13:46 10° SE
BREEZE-M DEB (TANK) 4.5 09:06:15 10° NW 09:09:06 26° N 09:11:41 10° ENE
Cosmos 1844 Rocket 4.5 09:04:50 10° SSE 09:09:24 26° ESE 09:14:00 10° NE
ARIANE 5 R/B 2.6 09:06:50 10° NNE 09:12:01 77° ESE 09:15:41 20° S
Meteor 1-28 Rocket 4.4 09:16:25 26° W 09:16:25 26° W 09:19:12 10° NW
ADEOS Rocket 4.0 09:16:08 22° WSW 09:16:35 22° W 09:20:47 10° NW
Cosmos 1603 4.1 09:12:32 10° NNW 09:18:08 66° ENE 09:23:44 10° SSE
Milstar 3 3.9 09:15:44 20° SSW 09:18:32 26° SSE 09:24:01 10° ESE
CZ-2D R/B 3.7 09:15:43 10° NNE 09:19:41 64° E 09:22:37 18° S
CZ-2D R/B 4.3 09:20:24 10° NW 09:21:42 11° WNW 09:23:01 10° WNW
Cosmos 1959 Rocket 4.4 09:17:53 16° S 09:22:55 87° W 09:29:08 10° N
Cosmos 864 Rocket 4.5 09:17:39 15° S 09:22:56 89° WNW 09:29:14 10° N
ADEOS II 3.6 09:19:50 10° NNW 09:23:42 21° WNW 09:25:41 17° W
Cosmos 1782 Rocket 3.5 09:23:31 26° SSW 09:25:48 64° W 09:30:09 10° N
CZ-2C R/B 4.3 09:23:02 10° NNE 09:26:24 32° E 09:29:47 10° SSE
Sich 1 Rocket 4.1 09:24:30 10° S 09:28:46 58° E 09:33:07 10° NNE
Cosmos 1805 3.3 09:26:33 18° S 09:29:22 79° E 09:33:17 10° N
SL-8 Rocket 4.0 09:24:57 19° SSW 09:29:24 62° W 09:35:32 10° N
Cosmos 2366 rocket 4.0 09:26:46 15° SSW 09:32:10 74° W 09:38:33 10° N
IRS-1C 4.4 09:27:37 10° N 09:32:49 54° WNW 09:36:26 19° SW
SL-16 R/B 3.4 09:30:41 10° NW 09:34:39 20° W 09:35:34 19° WSW
CZ-3 R/B 4.4 09:15:06 18° SW 09:34:39 36° S 09:44:01 10° ESE
ATLAS CENTAUR R/B 1.7 09:33:49 25° WSW 09:35:32 43° NW 09:39:18 10° NNE
Cosmos 676 Rocket 4.1 09:32:40 21° SW 09:36:13 62° WNW 09:41:31 10° NNE
KORONAS-FOTON 3.8 09:32:55 10° NNW 09:36:50 69° W 09:40:42 10° S
Cosmos 2263 Rocket 3.1 09:36:11 19° WSW 09:39:31 34° WNW 09:44:40 10° N
Cosmos 1707 4.1 09:41:15 10° NW 09:44:10 21° W 09:45:07 19° WSW
SL-14 R/B 4.4 09:41:20 10° N 09:45:06 45° E 09:48:51 10° SSE
PAYLOAD A 4.1 09:40:07 10° NNE 09:45:34 89° WNW 09:50:53 10° SSW
ALOS 2.8 09:45:35 10° NNE 09:50:13 59° E 09:54:48 10° S
CZ-4C R/B 3.1 09:42:57 10° NW 09:50:30 64° WSW 09:58:58 10° SSE
GEOS 3 Rocket 3.6 09:45:11 10° SSE 09:50:32 83° SW 09:55:54 10° NW
Cosmos 1741 Rocket 4.3 09:50:26 10° S 09:55:37 70° ESE 10:00:52 10° NNE
Cosmos 1733 3.4 09:52:52 13° SSW 09:56:11 54° W 09:59:57 10° N
Cosmos 2218 Rocket 4.5 09:52:27 12° SSW 09:58:02 44° WNW 10:04:05 10° N
SL-08 R/B 3.6 09:53:23 10° S 09:58:09 50° W 10:02:58 10° NNW
Cosmos 1766 3.2 09:54:33 10° SSW 09:58:23 70° W 10:02:17 10° N
Meteor 2-20 Rocket 4.4 09:52:35 10° N 09:58:43 74° W 10:04:50 10° S
Cosmos 1470 4.4 09:55:58 10° SSE 09:59:33 35° E 10:03:08 10° NNE
Cosmos 1763 Rocket 3.9 09:55:54 10° NNW 10:01:13 71° ENE 10:06:28 10° SSE
USA 281 4.0 09:56:03 10° SE 10:02:25 56° ENE 10:08:49 10° NNW
Cosmos 1300 Rocket 3.7 10:02:02 10° SSW 10:06:14 52° W 10:10:30 10° N
Cosmos 1727 Rocket 4.0 10:00:44 10° N 10:06:56 73° W 10:13:10 10° S
Meteor 1-15 Rocket 4.4 10:01:44 10° SSW 10:07:36 63° W 10:13:27 10° N
USA 290 2.4 10:06:45 10° NNW 10:10:00 77° ENE 10:13:13 10° SSE
Cosmos 1975 Rocket 3.9 10:09:45 10° NNW 10:13:37 30° W 10:17:25 10° SSW
Cosmos 1484 Rocket 3.2 10:10:01 10° NNE 10:13:58 66° ESE 10:17:55 10° S
Cosmos 1943 3.6 10:09:11 10° NW 10:14:30 41° WSW 10:19:46 10° S
Cosmos 1844 3.8 10:09:13 10° SSW 10:14:45 79° ESE 10:20:19 10° NNE
Cosmos 1340 3.9 10:13:06 10° NW 10:16:03 22° W 10:18:58 10° SW
CZ-2C R/B 2.8 10:13:22 10° N 10:17:41 42° WNW 10:22:01 10° SW
SL-24 R/B - RUBIN 2 3.6 10:14:34 10° NW 10:19:23 69° WSW 10:23:45 10° SSE
Cosmos 1400 Rocket 4.0 10:16:19 10° SW 10:19:31 25° WNW 10:22:45 10° NNW
Cosmos 1626 2.9 10:16:48 10° NNW 10:20:06 31° W 10:23:22 10° SSW
CZ-3B R/B 3.9 10:12:30 10° WSW 10:20:28 28° S 10:24:48 10° SE
Cosmos 1674 4.4 10:23:57 10° NW 10:26:19 16° W 10:28:40 10° SW
Cosmos 1315 Rocket 2.8 10:22:54 10° SSW 10:27:00 77° W 10:31:05 10° N
Okean 1 Rocket 3.5 10:23:10 10° S 10:27:30 66° E 10:31:54 10° NNE
USA 215 3.8 10:21:31 10° NE 10:27:47 51° NW 10:34:01 10° WSW
SL-19 R/B 4.3 10:25:17 10° S 10:30:49 68° WSW 10:36:38 10° NNW
